Simultaneous Nadir Overpasses (SNOs) Predictions

Prediction of SNOs between LANDSAT-8 and NOAA-19 Satellite Orbit:

Table of predicted SNOs for the next 14.0 days since TLE Epoch: 4/1/2023
Index Date (LANDSAT-8) Time (LANDSAT-8) Lat,Lon (LANDSAT-8) SZA (LANDSAT-8 ) Date (NOAA-19) Time (NOAA-19) Lat,Lon (NOAA-19) SZA (NOAA-19 ) Distance(km) Time Diff (sec)
1 04/01/2023 22:08:55 80.93,-115.57 77.91 04/01/2023 22:08:38 80.94,-115.57 77.91 1.14 17
2 04/01/2023 22:58:20 -80.97, 52.69 102.01 04/01/2023 22:59:34 -80.94, 52.75 102.01 4.41 74
3 04/04/2023 04:32:03 80.93, 148.65 77.06 04/04/2023 04:32:13 80.94, 148.59 77.07 1.42 10
4 04/06/2023 10:05:44 -80.94,-114.67 103.76 04/06/2023 10:04:49 -80.94,-114.64 103.78 0.43 55
5 04/06/2023 10:55:10 80.94, 53.00 76.24 04/06/2023 10:55:47 80.94, 53.03 76.26 0.52 37
6 04/08/2023 16:28:51 -80.93, 149.50 104.60 04/08/2023 16:28:24 -80.94, 149.56 104.60 1.10 27
7 04/08/2023 17:18:17 80.93, -42.85 75.40 04/08/2023 17:19:22 80.94, -43.01 75.41 2.77 65
8 04/10/2023 22:51:57 -80.94, 53.81 105.41 04/10/2023 22:51:59 -80.94, 53.66 105.42 2.63 2
9 04/13/2023 04:25:36 80.93, 150.26 73.78 04/13/2023 04:24:32 80.94, 150.42 73.77 2.90 64



Historial Predications of SNOs between LANDSAT-8 and NOAA-19
